Location: Eekwerd
(53.3234°N, 6.7984°E)
Time: 16:01:33
(UTC+00:00)

Cosmos 2237 Rocket - Pass Details

Date: 15 May 2026
Orbit: 834 x 849 km, 71.0° (Epoch: 10 June)

Event Time Altitude Azimuth Distance (km) Brightness Sun altitude
Rises 20:50:39 0° 325° (NW) 3,424 7.7 -10.0°
Reaches altitude 10° 20:53:42 10° 340° (NNW) 2,484 6.0 -10.3°
Maximum altitude 20:58:06 22° 31° (NNE) 1,764 4.2 -10.7°
Drops below altitude 10° 21:02:28 10° 82° (E) 2,470 4.4 -11.0°
Enters shadow 21:05:12 - 96° (E) 3,308 4.9 -11.3°
